Tracking 27402 objects as of 3-Jun-2023
HD Live streaming from Space Station
objects crossing your sky now

STARLINK-3650

Track STARLINK-3650 now!
10-day predictions
STARLINK-3650 is classified as:


NORAD ID: 51982
Int'l Code: 2022-025AC
Perigee: 546.4 km
Apogee: 547.4 km
Inclination: 53.2 °
Period: 95.4 minutes
Semi major axis: 6917 km
RCS: Unknown
Launch date: March 9, 2022
Source: United States (US)
Launch site: AIR FORCE EASTERN TEST RANGE (AFETR)
Your satellite tracking list
Your tracking list is empty




NASA's NSSDC Master Catalog

Two Line Element Set (TLE):
1 51982U 22025AC  23153.57471307 -.00000344  00000-0 -35701-5 0  9998
2 51982  53.2158 258.1907 0000732  64.8390 295.2678 15.08838770 68410
Source of the keplerian elements: AFSPC